Stations météo

Publicité
Le Touquet, France (7003): Température de l'air & dewpoint: 18.01.2021 07:00:00 - 24.01.2021 07:00:00 (CET)Le Touquet, France (7003): Température de l'air 5cm: 18.01.2021 07:00:00 - 24.01.2021 07:00:00 (CET)Le Touquet, France (7003): Vitesse du vent & gusts: 18.01.2021 07:00:00 - 24.01.2021 07:00:00 (CET)Le Touquet, France (7003): Direction du vent: 18.01.2021 07:00:00 - 24.01.2021 07:00:00 (CET)Le Touquet, France (7003): reduced air pressure: 18.01.2021 07:00:00 - 24.01.2021 07:00:00 (CET)Le Touquet, France (7003): visibility: 18.01.2021 07:00:00 - 24.01.2021 07:00:00 (CET)Le Touquet, France (7003): Ensoleillement: 18.01.2021 07:00:00 - 24.01.2021 07:00:00 (CET)Le Touquet, France (7003): Quantités de précipitations: 18.01.2021 07:00:00 - 24.01.2021 07:00:00 (CET)
Date & Time tt [°C] td [°C] tt 5cm [°C] ff [km/h] ff [knt] fx [km/h] fx [knt] dd ppp [hPa] vv [km] sd [min] rr [mm]
24.01.2021 07:00:00 0,2 -1,2 -1,7 9 5 10 6 SE 1000,2 59 0 0,0
24.01.2021 06:00:00 1,8 -1,8 -1,6 5 3 18 10 WNW 1000,3 60 0 0,0
24.01.2021 05:00:00 3,3 -2,0 -0,8 11 6 24 13 NW 1000,3 60 0 0,0
24.01.2021 04:00:00 3,4 -1,8 0,1 16 8 28 15 NW 1000,4 60 0 0,0
24.01.2021 03:00:00 3,1 -1,3 0,2 18 10 30 16 NW 1000,0 60 0 0,0
24.01.2021 02:00:00 3,1 -1,1 0,1 17 9 33 18 WNW 999,6 60 0 0,0
24.01.2021 01:00:00 3,0 -1,0 0,0 19 10 33 18 NW 999,0 60 0 0,0
24.01.2021 00:00:00 3,3 -0,5 0,6 20 11 34 19 NW 998,5 60 0 0,0
23.01.2021 23:00:00 3,6 -0,8 1,0 21 11 35 19 NW 998,2 60 0 0,0
23.01.2021 22:00:00 3,8 -0,8 0,8 19 10 33 18 NW 997,8 60 0 0,0
23.01.2021 21:00:00 3,6 -1,0 0,9 25 13 40 22 NW 997,2 60 0 0,0
23.01.2021 20:00:00 3,7 0,2 1,4 25 14 35 19 NW 996,6 56 0 0,0
23.01.2021 19:00:00 4,0 1,0 1,5 21 11 31 17 NW 996,0 51 0 0,0
23.01.2021 18:00:00 3,2 1,4 0,9 12 6 22 12 NNW 995,7 60 8 0,0
23.01.2021 17:00:00 4,1 2,3 3,3 11 6 16 9 N 995,0 60 16 0,0
23.01.2021 16:00:00 4,4 3,5 4,3 6 3 9 5 NNW 994,3 18 0 0,0
23.01.2021 15:00:00 4,1 3,1 4,3 6 4 8 5 N 994,0 60 0 0,2
23.01.2021 14:00:00 4,0 2,8 3,7 0 0 7 4 N 993,8 8 0 0,8
23.01.2021 13:00:00 3,9 2,7 3,7 3 2 9 5 SE 994,1 38 0 0,2
23.01.2021 12:00:00 3,8 2,8 3,5 6 3 13 7 ENE 993,8 14 0 0,0
23.01.2021 11:00:00 3,7 2,8 3,3 10 5 14 8 ESE 993,8 30 0 0,0
23.01.2021 10:00:00 3,6 2,7 3,2 10 6 15 8 ESE 993,9 33 0 0,0
23.01.2021 09:00:00 3,6 3,0 3,3 9 5 12 6 SE 994,3 43 0 0,0
23.01.2021 08:00:00 4,1 3,4 1,9 8 4 16 9 SSE 994,3 16 0 0,2
23.01.2021 07:00:00 2,7 1,8 1,3 6 3 11 6 SSE 994,6 47 0 0,0
23.01.2021 06:00:00 4,8 1,6 1,2 5 3 16 9 WSW 994,9 60 0 0,0
23.01.2021 05:00:00 5,0 2,2 1,3 6 3 15 8 W 995,2 60 0 0,0
23.01.2021 04:00:00 5,4 2,2 1,7 8 5 24 13 W 995,5 60 0 0,0
23.01.2021 03:00:00 6,1 2,4 3,4 13 7 38 20 W 995,7 60 0 0,0
23.01.2021 02:00:00 5,8 3,8 3,6 10 5 34 18 WSW 995,6 54 0 0,2
23.01.2021 01:00:00 5,2 3,5 3,3 16 8 28 15 SSW 995,9 12 0 0,2
23.01.2021 00:00:00 4,9 2,8 2,8 14 8 45 24 SSW 996,1 20 0 0,4
22.01.2021 23:00:00 5,1 3,3 3,7 8 4 32 17 SSW 995,9 60 0 0,2
22.01.2021 22:00:00 5,0 3,7 4,1 10 6 43 23 W 996,1 9 0 2,6
22.01.2021 21:00:00 6,3 3,5 5,1 8 4 20 11 S 995,9 60 0 0,0
22.01.2021 20:00:00 6,1 3,3 4,5 11 6 28 15 SSW 996,0 60 0 0,0
22.01.2021 19:00:00 6,1 3,4 4,1 13 7 34 18 SW 996,3 60 0 0,0
22.01.2021 18:00:00 6,1 3,4 3,5 8 4 13 7 SW 996,0 60 0 0,0
22.01.2021 17:00:00 6,4 2,8 4,9 7 4 10 5 SW 995,9 60 0 0,0
22.01.2021 16:00:00 7,1 2,8 6,7 6 3 17 9 SW 995,7 60 2 0,0
22.01.2021 15:00:00 7,6 1,9 7,8 9 5 20 11 W 995,5 56 21 0,0
22.01.2021 14:00:00 7,6 1,4 8,8 11 6 22 12 WNW 995,4 52 8 0,0
22.01.2021 13:00:00 7,6 1,9 9,8 13 7 21 12 WNW 995,5 50 28 0,0
22.01.2021 12:00:00 7,6 2,7 7,9 10 5 17 9 W 995,0 54 20 0,0
22.01.2021 11:00:00 6,8 2,7 5,0 6 3 16 8 WNW 994,5 59 1 0,0
22.01.2021 10:00:00 6,1 1,8 2,2 8 4 15 8 WNW 993,5 60 0 0,0
22.01.2021 09:00:00 5,7 2,0 1,6 7 4 22 12 WNW 992,9 59 0 0,0
22.01.2021 08:00:00 5,9 2,5 2,2 13 7 21 12 WNW 992,0 60 0 0,0
22.01.2021 07:00:00 6,0 2,1 2,5 11 6 20 11 WNW 991,3 60 0 0,0
22.01.2021 06:00:00 6,5 3,1 3,0 11 6 18 10 NW 990,9 60 0 0,0
22.01.2021 05:00:00 6,5 2,2 3,3 9 5 24 13 WNW 990,4 60 0 0,0
22.01.2021 04:00:00 6,7 2,2 2,4 9 5 21 11 W 990,3 60 0 0,0
22.01.2021 03:00:00 6,5 2,0 3,1 16 9 29 16 WNW 989,7 60 0 0,0
22.01.2021 02:00:00 6,9 3,5 4,6 14 8 29 16 W 989,1 60 0 0,0
22.01.2021 01:00:00 6,1 3,8 2,4 10 6 21 11 WSW 988,5 60 0 0,0
22.01.2021 00:00:00 4,8 3,8 3,6 6 4 16 9 WSW 987,9 60 0 0,0
21.01.2021 23:00:00 4,6 3,7 3,9 6 3 26 14 WNW 986,9 59 0 0,8
21.01.2021 22:00:00 4,6 3,9 4,2 15 8 26 14 NNW 986,0 8 0 0,8
21.01.2021 21:00:00 4,8 4,1 4,5 12 7 22 12 NNW 984,9 11 0 0,8
21.01.2021 20:00:00 5,3 4,9 5,1 10 5 16 9 NNW 984,2 3,0 0 0,8
21.01.2021 19:00:00 5,5 4,9 5,1 9 5 11 6 N 984,3 5 0 1,8
21.01.2021 18:00:00 5,8 4,8 5,2 10 5 19 10 ESE 985,4 11 0 4,7
21.01.2021 17:00:00 6,3 5,1 5,7 10 5 28 15 SSE 988,0 8 0 1,6
21.01.2021 16:00:00 7,1 4,9 6,0 15 8 49 26 SSW 989,5 10 0 0,4
21.01.2021 15:00:00 8,4 4,2 8,0 24 13 47 25 SSW 990,2 19 0 0,0
21.01.2021 14:00:00 8,1 4,3 8,1 24 13 53 28 SSW 991,0 20 11 0,0
21.01.2021 13:00:00 8,7 4,7 7,3 22 12 50 27 SSW 991,8 20 31 0,0
21.01.2021 12:00:00 7,3 4,9 5,9 22 12 52 28 SSW 992,3 19 14 0,2
21.01.2021 11:00:00 7,7 4,8 5,6 25 13 45 25 SW 992,3 18 9 0,0
21.01.2021 10:00:00 6,4 5,0 2,7 15 8 53 29 SW 992,1 19 0 1,4
21.01.2021 09:00:00 7,2 5,2 3,7 26 14 68 37 SSW 991,6 16 0 2,0
21.01.2021 08:00:00 7,6 5,1 5,5 27 15 55 30 WSW 991,1 9 0 0,4
21.01.2021 07:00:00 8,2 2,4 4,8 27 15 52 28 WSW 990,4 19 0 0,2
21.01.2021 06:00:00 8,1 3,2 5,9 22 12 54 29 W 989,6 14 0 0,0
21.01.2021 05:00:00 7,9 1,9 6,1 29 16 60 32 W 988,8 20 0 0,0
21.01.2021 04:00:00 7,8 2,7 6,1 32 18 64 35 W 987,4 20 0 0,0
21.01.2021 03:00:00 8,1 4,3 6,4 32 17 74 40 W 985,3 16 0 1,4
21.01.2021 02:00:00 8,2 6,5 7,3 34 19 78 42 WSW 983,1 3,4 0 3,1
21.01.2021 01:00:00 10,7 7,4 8,9 33 18 63 34 S 981,3 10 0 0,0
21.01.2021 00:00:00 10,6 6,2 7,8 35 19 69 38 S 982,4 60 0 0,2
20.01.2021 23:00:00 10,5 5,3 7,6 29 16 59 32 S 983,7 20 0 0,0
20.01.2021 22:00:00 10,0 4,6 8,7 25 13 49 26 S 985,8 60 0 0,0
20.01.2021 21:00:00 9,8 4,6 7,9 23 13 46 25 S 987,7 60 0 0,0
20.01.2021 20:00:00 9,9 4,7 7,6 23 12 49 26 S 988,8 60 0 0,0
20.01.2021 19:00:00 9,6 5,4 7,4 22 12 49 27 S 989,8 52 0 0,4
20.01.2021 18:00:00 9,6 5,4 7,3 19 10 42 23 S 990,4 19 0 0,2
20.01.2021 17:00:00 10,1 4,2 9,1 21 11 42 23 S 990,9 60 0 0,0
20.01.2021 16:00:00 10,0 4,4 9,4 21 11 43 23 S 991,5 58 0 0,0
20.01.2021 15:00:00 9,8 4,6 9,1 19 10 38 21 S 992,1 41 0 0,0
20.01.2021 14:00:00 9,4 4,6 8,1 18 10 41 22 S 993,4 56 0 0,0
20.01.2021 13:00:00 8,8 4,6 7,7 18 10 40 22 S 994,6 48 0 0,0
20.01.2021 12:00:00 8,7 5,4 7,6 24 13 39 21 S 995,4 47 0 0,0
20.01.2021 11:00:00 8,5 5,8 7,1 16 9 33 18 SSE 996,1 55 0 0,0
20.01.2021 10:00:00 8,1 5,9 7,1 15 8 42 23 S 996,9 55 0 0,2
20.01.2021 09:00:00 8,8 6,4 7,5 19 11 41 22 S 997,7 20 0 0,4
20.01.2021 08:00:00 9,2 6,1 7,6 22 12 45 24 S 997,9 14 0 0,2
20.01.2021 07:00:00 9,7 5,5 8,2 22 12 48 26 SSW 998,3 41 0 0,0
20.01.2021 06:00:00 9,4 6,3 8,0 22 12 49 27 SSW 998,7 42 0 0,0
20.01.2021 05:00:00 9,0 7,1 7,9 23 12 51 27 SSW 999,4 19 0 0,0
20.01.2021 04:00:00 9,1 6,5 8,3 26 14 53 28 SSW 1000,1 20 0 0,0
20.01.2021 03:00:00 8,9 6,2 8,4 24 13 51 28 SSW 1000,7 18 0 0,0
20.01.2021 02:00:00 9,1 6,4 8,0 23 13 49 26 SSW 1001,3 19 0 0,0
20.01.2021 01:00:00 9,0 6,8 7,7 26 14 48 26 SSW 1002,3 18 0 0,2
20.01.2021 00:00:00 9,2 6,3 8,2 22 12 48 26 SSW 1003,0 19 0 0,0
19.01.2021 23:00:00 9,1 5,8 8,4 23 12 48 26 S 1003,5 20 0 0,0
19.01.2021 22:00:00 8,9 5,6 7,8 21 11 47 26 S 1004,4 20 0 0,0
19.01.2021 21:00:00 9,0 5,7 8,3 27 15 48 26 S 1005,0 38 0 0,0
19.01.2021 20:00:00 9,2 6,1 8,3 24 13 51 27 SSW 1006,0 47 0 0,0
19.01.2021 19:00:00 9,0 6,1 8,3 19 11 45 24 SSW 1006,5 45 0 0,0
19.01.2021 18:00:00 9,1 6,4 8,5 21 11 47 25 SSW 1007,2 10 0 0,0
19.01.2021 17:00:00 9,1 6,7 8,6 21 12 39 21 SSW 1008,0 40 0 0,0
19.01.2021 16:00:00 9,0 6,8 8,8 24 13 53 29 SW 1008,6 20 0 0,0
19.01.2021 15:00:00 9,1 7,4 8,8 25 14 55 30 SW 1008,8 19 4 0,0
19.01.2021 14:00:00 9,3 7,4 9,1 31 17 56 30 SW 1009,6 16 0 0,0
19.01.2021 13:00:00 9,0 7,8 8,8 29 16 59 32 SW 1010,2 14 0 0,0
19.01.2021 12:00:00 8,8 8,2 8,7 29 15 58 32 SW 1010,7 3,7 0 0,0
19.01.2021 11:00:00 8,9 8,4 8,6 32 17 61 33 SW 1010,4 3,8 0 0,2
19.01.2021 10:00:00 8,9 8,3 8,4 29 16 53 29 SW 1010,3 6 0 0,0
19.01.2021 09:00:00 8,7 8,1 8,2 29 16 61 33 SW 1010,1 6 0 0,2
19.01.2021 08:00:00 8,7 7,9 7,8 31 17 56 30 SW 1010,2 4,5 0 1,3
19.01.2021 07:00:00 8,1 7,7 7,3 27 15 49 26 SW 1010,5 3,2 0 2,8
19.01.2021 06:00:00 7,9 6,8 6,9 32 17 57 31 SW 1010,9 8 0 1,2
19.01.2021 05:00:00 7,4 6,7 6,7 24 13 61 33 SSW 1011,6 5 0 0,8
19.01.2021 04:00:00 7,7 5,7 6,5 22 12 49 26 SSW 1012,5 18 0 0,0
19.01.2021 03:00:00 7,3 5,6 6,6 20 11 41 22 SSW 1014,2 17 0 0,0
19.01.2021 02:00:00 7,4 5,7 6,2 23 12 42 23 SSW 1015,5 17 0 0,0
19.01.2021 01:00:00 6,9 5,4 5,9 21 11 40 22 SSW 1016,8 13 0 0,0
19.01.2021 00:00:00 6,4 5,3 5,9 16 9 38 20 SSW 1017,7 12 0 0,0
18.01.2021 23:00:00 7,0 4,3 6,4 18 10 35 19 SSW 1018,6 19 0 0,0
18.01.2021 22:00:00 7,1 3,9 6,0 18 10 34 18 SW 1019,6 42 0 0,0
18.01.2021 21:00:00 7,0 3,6 6,0 16 9 41 22 SW 1020,2 43 0 0,0
18.01.2021 20:00:00 7,3 3,9 6,0 21 12 41 22 SW 1021,0 44 0 0,0
18.01.2021 19:00:00 7,4 4,7 6,2 18 10 33 18 SW 1021,4 20 0 0,0
18.01.2021 18:00:00 7,5 5,6 6,0 20 11 33 18 SW 1021,7 19 0 0,0
18.01.2021 17:00:00 6,8 5,4 5,8 8 4 36 20 WSW 1022,1 60 0 0,2
18.01.2021 16:00:00 7,1 5,7 6,7 20 11 36 19 WSW 1022,5 7 0 0,2
18.01.2021 15:00:00 7,2 4,7 6,5 11 6 27 15 WSW 1022,8 58 0 0,0
18.01.2021 14:00:00 7,2 5,3 6,8 9 5 29 15 WSW 1023,6 20 10 0,4
18.01.2021 13:00:00 7,1 5,4 7,0 10 5 23 12 W 1024,4 8 0 0,2
18.01.2021 12:00:00 7,4 4,5 5,4 13 7 28 15 WNW 1024,7 18 2 0,0
18.01.2021 11:00:00 4,6 4,5 0,1 6 3 10 6 S 1025,1 10 3 0,0
18.01.2021 10:00:00 0,9 0,8 -2,6 7 4 13 7 SE 1025,3 10 0 0,0
18.01.2021 09:00:00 -1,1 -1,4 -3,2 8 4 10 6 ESE 1025,3 7 0 0,0
18.01.2021 08:00:00 -0,8 -1,1 -3,5 7 4 9 5 SE 1025,5 8 0 0,0
18.01.2021 07:00:00 -0,5 -0,8 -3,4 5 3 10 5 SSE 1025,4 8 0 0,0

tt = Température de l'air
td = dewpoint
tt 5cm = Température de l'air 5cm
ff = Vitesse du vent
fx = gusts
dd = Direction du vent
ppp = reduced air pressure
vv = visibility
sd = Ensoleillement
rr = Quantités de précipitations

stations d'obs. à proximité